Regional Weather Roundup
Issued by NWS

Home | Current Version | Previous Version | Text Only | Print | Product List | Glossary On
Versions: 1 2 3 4 5 6 7 8 9 10 11 12 13 14 15 16 17 18 19 20 21 22 23 24 25 26 27 28 29 30 31 32 33 34 35 36 37 38 39 40 41 42 43 44 45 46 47 48 49 50
000
ASUS45 KBOU 091407
RWRCO

WEATHER ROUNDUP FOR COLORADO
NATIONAL WEATHER SERVICE DENVER/BOULDER CO
700 AM MST TUE FEB 09 2016

NOTE: "FAIR" INDICATES FEW OR NO CLOUDS BELOW 12000 FEET WITH NO
SIGNIFICANT WEATHER AND/OR OBSTRUCTIONS TO VISIBILITY.

COZ001>005-013-030-031-091500-
...NORTHWEST COLORADO...

CITY           SKY/WX    TMP DP  RH WIND       PRES   REMARKS
CRAIG          CLOUDY    -7 -11  83 CALM      30.54S
HAYDEN         CLOUDY    12   7  79 E12       30.52S WCI  -2
MEEKER         CLOUDY     8   3  80 CALM      30.53R
MOUNT WERNER   NOT AVBL
STEAMBOAT SPGS CLOUDY     7   4  88 CALM      30.53F
WALDEN         CLOUDY    10   5  79 E6        30.50S WCI   1
$$

COZ006>008-011-091500-
...WEST CENTRAL VALLEYS...

CITY           SKY/WX    TMP DP  RH WIND       PRES   REMARKS
GRAND JUNCTION CLOUDY    15  13  91 E6        30.53S WCI   6
MONTROSE       CLOUDY    15   9  76 S7        30.56R WCI   5
EAGLE          NOT AVBL
RIFLE          CLOUDY     9   5  84 SE5       30.56R WCI   1
DELTA          CLOUDY    19  16  89 CALM      30.56R
NUCLA          CLOUDY    21  14  73 E7        30.54S WCI  13
$$

COZ017>023-064>068-091500-
...SOUTHWEST COLORADO...

CITY           SKY/WX    TMP DP  RH WIND       PRES   REMARKS
DURANGO        CLOUDY    10   6  84 NE5       30.43R WCI   2
CORTEZ         CLOUDY    17  12  80 NE10      30.44S WCI   5
PAGOSA SPRINGS CLOUDY    14   8  75 CALM      30.43R
TELLURIDE      CLOUDY    23   2  40 SE7       30.50S WCI  14
WOLF CREEK PAS CLOUDY    30 -18  11 N22G30    30.52S WCI  17
$$

COZ009-010-012-014-032>034-037-058>063-091500-
...CENTRAL COLORADO...

CITY           SKY/WX    TMP DP  RH WIND       PRES   REMARKS
ASPEN          CLOUDY    11   6  81 CALM      30.50S
BUENA VISTA    CLOUDY    28  12  51 N16       30.43R WCI  17
COPPER MTN     CLOUDY    25   3  39 W12       30.51R WCI  14
BERTHOUD PASS  FAIR      12   3  67 N13G18    30.48R WCI  -3
COTTONWOOD PAS CLOUDY    34  -8  16 W15G26    30.44S WCI  24
GUNNISON       CLOUDY    -9 -26  45 CALM      30.60R
KREMMLING      FOG      N/A N/A N/A CALM      30.59S VSB<1/4
LEADVILLE      CLOUDY    12   4  70 NE8       30.48R WCI   0
MONARCH PASS   CLOUDY    21  -2  35 W15       30.59S WCI   8
SALIDA         NOT AVBL
SUNLIGHT       CLOUDY    23  18  80 NW7         N/A  WCI  15
WILKERSON PASS CLOUDY    27  -2  28 NW9G18    30.46F WCI  17
$$

COZ069>075-091500-
...SAN LUIS VALLEY/SANGRE DE CRISTO MOUNTAINS...

CITY           SKY/WX    TMP DP  RH WIND       PRES   REMARKS
ALAMOSA        CLOUDY    10   5  80 CALM      30.44R
LA VETA PASS   CLOUDY    23  10  58 CALM      30.43R
SAGUACHE       CLOUDY    27  14  59 NW21      30.44R WCI  13
$$

COZ035-036-038>040-091500-
...NORTHERN COLORADO FRONT RANGE...

CITY           SKY/WX    TMP DP  RH WIND       PRES   REMARKS
DENVER INTL AP CLOUDY    33  16  49 SW12      30.30R WCI  24
DMNS CITY PARK   N/A     28  17  62 SE7       30.31S WCI  21
AURORA         PTCLDY    30  16  56 S12       30.31R WCI  21
FRONT RANGE AP CLEAR     25  16  68 S8        30.31  WCI  16
ERIE MUNI ARPT CLOUDY    21  18  88 SW3       30.30R
BOULDER MUN AP CLOUDY    32  21  64 NW3       30.29R
CENTENNIAL     CLOUDY    29  14  53 S6        30.31R WCI  23
BROOMFIELD     CLEAR     36  16  44 S3        30.30R
FORT COLLINS   CLOUDY    19  12  73 N7        30.32R WCI  10
LONGMONT       CLOUDY    18  12  78 CALM      30.32R
$$

COZ041-046-047-076>085-087-088-091500-
...PIKES PEAK/PALMER DIVIDE AND SOUTHERN FOOTHILLS...

CITY           SKY/WX    TMP DP  RH WIND       PRES   REMARKS
COLO. SPRINGS  CLOUDY    22  14  71 N12       30.34S WCI  10
A. F. ACADEMY  CLOUDY    15  11  83 N13       30.33S WCI   2
SCHRIEVER AFB  NOT AVBL
ELLICOTT       NOT AVBL
FALCON         NOT AVBL
FORT CARSON    CLOUDY    21  14  74 NW9       30.32S WCI  11
LIMON          CLOUDY    24  16  71 NW6       30.32R WCI  17
MONUMENT HILL  CLOUDY    30  10  43 W7        30.34S WCI  23
TRINIDAD       CLOUDY    27  18  69 SW12      30.37R WCI  17
$$

COZ042>045-048>051-090-091-091500-
...NORTHEAST COLORADO...

CITY           SKY/WX    TMP DP  RH WIND       PRES   REMARKS
GREELEY ARPT   CLOUDY    12  12 100 CALM      30.33R
AKRON          CLOUDY    27  20  75 W17       30.27R WCI  14
BURLINGTON     CLEAR     30  20  66 W10       30.26R WCI  21
WRAY           CLEAR     31  25  76 W13       30.25R WCI  22
STERLING       CLOUDY    36  27  69 NW15      30.26F
HOLYOKE        CLEAR     37  28  70 NW16      30.24R
FORT MORGAN    CLOUDY    22  19  85 W14       30.31R WCI  10
$$

COZ086-089-092>099-091500-
...SOUTHEAST COLORADO...

CITY           SKY/WX    TMP DP  RH WIND       PRES   REMARKS
PUEBLO         CLOUDY    24  19  81 SW8       30.34F WCI  15
LA JUNTA       CLEAR     28  22  78 W17       30.34R WCI  16
LAMAR          CLEAR     28  24  85 W15       30.31R WCI  16
SPRINGFIELD      N/A     31  23  72 W9        30.32R WCI  23
$$



USA.gov is the U.S. government's official web portal to all federal, state and local government web resources and services.